[[{"header":{"parameterUnit":"m.s-1","parameterCategory":1,"la1":30.2991,"la2":30.254,"lo1":-89.0895,"lo2":-89.0444,"dy":0.0017,"dx":0.0017,"nx":28,"ny":28,"refTime":"2025-03-23T03:00:00:Z","depth":0,"parameterNumber":2,"parameterNumberName":"U-component_of_WINDS"},"data":[0,0,0,0,0,0,0,0,0,0,0,0,0,0,0,0,0,0,0,0,0,0,0,0,0,0,0,0,0,0,0,0,0,0,0,0,0,0,0,0,0,0,0,0,0,0,0,0,0,0,0,0,0,0,0,0,0,0,1.2947,1.2948,0,1.3067,1.3069,1.307,1.3157,1.3158,1.3158,1.3159,1.3284,1.3287,1.3289,0,0,0,0,0,0,0,0,0,0,0,0,0,1.2797,1.28,1.2947,1.2948,1.295,1.3067,1.3069,1.307,1.3157,1.3158,1.3159,1.3159,1.3283,1.3286,1.3289,0,0,0,0,0,0,0,0,0,0,0,0,0,1.2884,1.28,1.2947,1.3007,1.3014,1.3067,1.3069,1.3071,1.3157,1.3158,1.3159,1.316,1.3282,1.3286,1.329,1.3293,0,0,1.3302,1.3304,0,0,0,0,0,0,0,0,1.2879,1.289,1.2997,1.3003,1.3011,1.3098,1.3062,1.3145,1.3156,1.3102,1.3159,1.316,1.3221,1.323,1.3251,1.3299,1.3304,1.3302,1.3305,1.3307,1.3308,0,0,0,0,0,0,0,1.2873,1.2885,1.2995,1.2998,1.3007,1.303,1.3044,1.3078,1.3154,1.3107,1.3114,1.3127,1.3225,1.3247,1.3254,1.3306,1.3302,1.3306,1.3308,1.331,1.3368,1.3367,0,0,0,0,0,0,1.2857,1.288,1.2991,1.2998,1.2946,1.3032,1.3047,1.3069,1.3154,1.3168,1.3126,1.313,1.3239,1.3249,1.3259,1.3271,1.3306,1.331,1.3312,1.3369,1.3368,1.3367,0,0,0,0,0,0,1.2854,1.2866,1.2986,1.2941,1.2958,1.3033,1.3057,1.3071,1.3092,1.3168,1.3183,1.3133,1.3241,1.3253,1.3285,1.3277,1.3312,1.3316,1.337,1.3368,1.3367,1.3294,0,0,0,0,0,0,1.2849,1.2865,1.2865,1.294,1.296,1.3008,1.3057,1.3072,1.3098,1.3106,1.3179,1.3192,1.3242,1.3278,1.3289,1.3283,1.3319,1.3371,1.3369,1.3368,1.3297,1.329,1.3284,0,0,0,0,0,1.2843,1.2839,1.2864,1.2877,1.2962,1.3007,1.3019,1.3076,1.3097,1.31,1.315,1.319,1.3276,1.3281,1.3293,1.3288,1.3372,1.337,1.3368,1.33,1.3291,1.3284,0,0,0,0,0,0,1.276,1.2849,1.2879,1.2898,1.2944,1.3022,1.3026,1.3064,1.3106,1.3111,1.3181,1.3197,1.3222,1.3258,1.3262,1.3299,1.3329,1.333,1.3273,1.3266,1.3259,1.325,1.3322,0,0,0,0,0,1.2743,1.2772,1.2849,1.2859,1.2881,1.2949,1.2971,1.3012,1.3063,1.3083,1.3135,1.3183,1.3223,1.3246,1.3285,1.3303,1.3322,1.3306,1.33,1.3294,1.3294,1.331,1.3305,1.3361,1.3361,1.3361,0,0,1.271,1.2763,1.2776,1.2843,1.2884,1.2914,1.2965,1.2993,1.3017,1.3087,1.3121,1.3161,1.322,1.3246,1.326,1.3277,1.3283,1.3292,1.3286,1.3289,1.3308,1.3302,1.3298,1.3359,1.336,1.336,0,0,1.2665,1.2706,1.2721,1.2761,1.2823,1.2869,1.2873,1.2945,1.2975,1.301,1.3064,1.3095,1.3158,1.32,1.3229,1.3205,1.3245,1.3216,1.3182,1.3197,1.3192,1.3189,1.3183,1.318,1.3216,1.3215,1.3215,0,1.2616,1.2662,1.2723,1.275,1.2779,1.2846,1.2863,1.2899,1.297,1.299,1.3008,1.3093,1.3138,1.3176,1.3171,1.3191,1.32,1.3208,1.3188,1.3185,1.3183,1.3178,1.3175,1.3212,1.3212,1.3212,1.3213,0,1.26,1.2631,1.2636,1.2704,1.2734,1.2755,1.2823,1.2846,1.2885,1.293,1.2968,1.3024,1.3078,1.309,1.3128,1.3135,1.3144,1.3174,1.3207,1.3173,1.317,1.3168,1.3206,1.3208,1.3209,1.321,0,0,1.2503,1.2608,1.2609,1.2642,1.2717,1.2743,1.2769,1.2823,1.2843,1.2891,1.2916,1.2971,1.3001,1.3034,1.3078,1.3091,1.3073,1.312,1.3123,1.3111,1.3088,1.3066,1.3063,1.31,1.31,1.31,1.3084,0,1.2471,1.252,1.2578,1.2609,1.2641,1.2706,1.273,1.2779,1.2823,1.2859,1.2908,1.2947,1.2981,1.3003,1.3018,1.3071,1.3069,1.3073,1.3127,1.3128,1.311,1.3061,1.3036,1.3019,1.3083,1.3083,1.3083,0,1.2439,1.2485,1.2518,1.2594,1.261,1.2629,1.2686,1.2717,1.2777,1.2808,1.2848,1.2895,1.2929,1.2958,1.3008,1.3009,1.3035,1.3065,1.3066,1.3074,1.3103,1.3069,1.3014,1.3012,1.3081,1.3081,1.3081,0,1.2368,1.2438,1.2468,1.2495,1.2583,1.2596,1.2634,1.2695,1.2724,1.2774,1.2795,1.2847,1.2876,1.2917,1.2979,1.2993,1.3023,1.3056,1.3052,1.3051,1.3056,1.3055,1.3006,1.307,1.307,1.307,1.307,0,1.2326,1.2344,1.2438,1.2456,1.2481,1.2549,1.2572,1.2616,1.267,1.27,1.276,1.2788,1.2867,1.2905,1.2954,1.299,1.3002,1.3031,1.3044,1.3026,1.3023,1.3044,1.3048,1.3069,1.3069,1.307,1.307,0,1.225,1.2313,1.2351,1.2433,1.2454,1.2469,1.254,1.2562,1.2611,1.2649,1.2662,1.2739,1.2787,1.2854,1.2921,1.2955,1.2985,1.3004,1.2965,1.2973,1.2966,1.2967,1.2931,1.2931,1.2992,1.2992,1.2991,0,1.2219,1.2236,1.2321,1.2345,1.2381,1.242,1.2451,1.2521,1.2552,1.2623,1.2637,1.269,1.2736,1.2811,1.2874,1.2928,1.295,1.2934,1.2959,1.2942,1.2953,1.2952,1.2956,1.2928,1.2927,1.2926,1.2926,0,1.216,1.2192,1.2234,1.2289,1.2325,1.2371,1.242,1.2437,1.2518,1.255,1.26,1.2636,1.2707,1.276,1.2823,1.2865,1.291,1.2918,1.292,1.2903,1.288,1.2895,1.295,1.2918,1.2919,1.2919,1.292,1.292,1.2108,1.2127,1.219,1.2237,1.2282,1.2327,1.2353,1.2407,1.245,1.2513,1.2552,1.2602,1.2666,1.2755,1.2795,1.2836,1.2854,1.2857,1.2858,1.2858,1.2853,1.2873,1.2848,1.2848,1.2848,1.2849,1.2849,0,1.2053,1.2098,1.2141,1.2209,1.2246,1.2285,1.2343,1.2373,1.2415,1.2471,1.2516,1.2576,1.2629,1.2697,1.2756,1.2776,1.2799,1.2789,1.2789,1.2799,1.2833,1.2826,1.277,1.277,1.277,1.277,1.277,1.2771,1.2029,1.2065,1.2104,1.2164,1.221,1.2259,1.2289,1.2333,1.2378,1.2442,1.2486,1.2531,1.2593,1.2658,1.2709,1.2728,1.2748,1.2733,1.2758,1.2789,1.2796,1.2802,1.2796,1.2736,1.2736,1.2722,1.2722,1.2721]},{"header":{"parameterUnit":"m.s-1","parameterCategory":1,"la1":30.2991,"la2":30.254,"lo1":-89.0895,"lo2":-89.0444,"dy":0.0017,"dx":0.0017,"nx":28,"ny":28,"refTime":"2025-03-23T03:00:00:Z","depth":0,"parameterNumber":3,"parameterNumberName":"V-component_of_WINDS"},"data":[0,0,0,0,0,0,0,0,0,0,0,0,0,0,0,0,0,0,0,0,0,0,0,0,0,0,0,0,0,0,0,0,0,0,0,0,0,0,0,0,0,0,0,0,0,0,0,0,0,0,0,0,0,0,0,0,0,0,2.6683,2.6683,0,2.6716,2.6717,2.6717,2.6725,2.6725,2.6725,2.6725,2.6755,2.6756,2.6757,0,0,0,0,0,0,0,0,0,0,0,0,0,2.6623,2.6624,2.6683,2.6683,2.6684,2.6716,2.6717,2.6717,2.6725,2.6725,2.6725,2.6724,2.6755,2.6756,2.6757,0,0,0,0,0,0,0,0,0,0,0,0,0,2.6652,2.6624,2.6683,2.6692,2.6693,2.6716,2.6717,2.6717,2.6725,2.6725,2.6725,2.6724,2.6754,2.6756,2.6757,2.6773,0,0,2.6762,2.6762,0,0,0,0,0,0,0,0,2.665,2.6654,2.669,2.6691,2.6693,2.6716,2.6707,2.6736,2.6725,2.6713,2.6725,2.6724,2.6742,2.6745,2.6751,2.6774,2.6775,2.6762,2.6763,2.6763,2.6764,0,0,0,0,0,0,0,2.6648,2.6652,2.6696,2.6691,2.6692,2.6693,2.6697,2.6712,2.6729,2.6714,2.6715,2.6719,2.6743,2.675,2.6752,2.6776,2.6762,2.6763,2.6764,2.6765,2.6814,2.6814,0,0,0,0,0,0,2.6645,2.6651,2.6695,2.6697,2.667,2.6694,2.6699,2.6709,2.6729,2.6731,2.6719,2.6719,2.6747,2.675,2.6753,2.6774,2.6763,2.6765,2.6766,2.6814,2.6814,2.6815,0,0,0,0,0,0,2.6644,2.6649,2.6694,2.6674,2.668,2.6696,2.6707,2.671,2.6717,2.6732,2.6735,2.6724,2.6747,2.6751,2.6768,2.6775,2.6765,2.6767,2.6813,2.6814,2.6814,2.6815,0,0,0,0,0,0,2.6642,2.6648,2.6655,2.6674,2.6681,2.6709,2.6708,2.6711,2.672,2.6721,2.6737,2.674,2.6747,2.6766,2.677,2.6777,2.6768,2.6813,2.6813,2.6814,2.6814,2.6815,2.6816,0,0,0,0,0,2.664,2.6653,2.6655,2.6661,2.669,2.671,2.6713,2.6723,2.6721,2.6727,2.6737,2.6739,2.6773,2.6768,2.6772,2.678,2.6812,2.6813,2.6814,2.6814,2.6815,2.6816,0,0,0,0,0,0,2.6632,2.6655,2.6659,2.6678,2.6692,2.6711,2.672,2.6724,2.6737,2.6737,2.6747,2.675,2.6767,2.6775,2.6768,2.6796,2.6793,2.6795,2.6791,2.6792,2.6793,2.6791,2.6769,0,0,0,0,0,2.6633,2.6648,2.6667,2.6683,2.669,2.6703,2.6712,2.6719,2.6733,2.6738,2.6749,2.6762,2.6775,2.6784,2.6797,2.6815,2.6819,2.6822,2.6823,2.6824,2.6826,2.6836,2.6838,2.6818,2.6818,2.6818,0,0,2.6634,2.6649,2.6658,2.6682,2.6693,2.6708,2.6708,2.6723,2.6734,2.674,2.6758,2.6766,2.6781,2.6799,2.6807,2.6805,2.6832,2.6825,2.6826,2.6827,2.6838,2.684,2.6841,2.6818,2.6818,2.6818,0,0,2.6645,2.6658,2.6673,2.6685,2.6703,2.6712,2.6715,2.6734,2.674,2.6759,2.6763,2.6776,2.6799,2.6809,2.6818,2.6833,2.6836,2.6837,2.6843,2.6853,2.6855,2.6856,2.6863,2.6865,2.6839,2.6839,2.6839,0,2.6645,2.6668,2.6679,2.6695,2.6706,2.6713,2.6728,2.6739,2.6759,2.6766,2.6764,2.6794,2.6804,2.6825,2.683,2.6836,2.684,2.6836,2.6854,2.6855,2.6857,2.6863,2.6866,2.6839,2.6839,2.6839,2.6839,0,2.6667,2.6683,2.6693,2.6715,2.6726,2.6741,2.6754,2.6764,2.677,2.6779,2.6797,2.681,2.6827,2.6832,2.6836,2.6854,2.6852,2.6852,2.6849,2.6859,2.6865,2.6868,2.6839,2.6839,2.6839,2.6839,0,0,2.6673,2.6703,2.6706,2.6717,2.6737,2.675,2.6765,2.6783,2.6792,2.6805,2.6819,2.6838,2.6839,2.6848,2.6854,2.6863,2.6876,2.6862,2.6862,2.6865,2.6897,2.6898,2.69,2.6878,2.6878,2.6879,2.6896,0,2.6687,2.6717,2.6728,2.6752,2.6767,2.6775,2.6788,2.6802,2.6811,2.6825,2.6834,2.6848,2.6847,2.6853,2.6863,2.6873,2.6883,2.6871,2.689,2.689,2.6887,2.6904,2.6904,2.692,2.6898,2.6899,2.6899,0,2.6708,2.6724,2.675,2.677,2.6777,2.6789,2.6807,2.682,2.6835,2.6841,2.6853,2.6858,2.6874,2.687,2.6891,2.6883,2.6891,2.6897,2.6898,2.6901,2.6896,2.6908,2.6925,2.6928,2.6903,2.6902,2.6902,0,2.6711,2.6739,2.6759,2.6768,2.6791,2.68,2.681,2.6825,2.6836,2.6851,2.6857,2.6873,2.6882,2.6894,2.6903,2.6899,2.6925,2.6921,2.693,2.693,2.6936,2.6935,2.6956,2.6939,2.6939,2.6939,2.6939,0,2.6726,2.6742,2.6761,2.6774,2.6791,2.6803,2.682,2.6831,2.6845,2.6858,2.6865,2.6877,2.6889,2.6902,2.6909,2.6927,2.693,2.6936,2.6937,2.6936,2.6935,2.6942,2.6941,2.694,2.6939,2.6939,2.6939,0,2.6733,2.6747,2.6769,2.679,2.6796,2.6808,2.6826,2.6838,2.6847,2.6865,2.6869,2.6884,2.6901,2.6911,2.6932,2.6937,2.6956,2.6957,2.6952,2.6953,2.6962,2.6962,2.6989,2.6993,2.6972,2.6972,2.6972,0,2.6742,2.6755,2.6778,2.6789,2.68,2.6816,2.6827,2.6839,2.6851,2.687,2.6879,2.6897,2.6912,2.6938,2.695,2.6966,2.6968,2.6976,2.697,2.6968,2.6969,2.6969,2.6971,2.6977,2.6977,2.6977,2.6978,0,2.6757,2.6764,2.678,2.68,2.6814,2.6829,2.6845,2.6853,2.6867,2.6879,2.6898,2.6909,2.6932,2.6949,2.6966,2.6975,2.6979,2.6979,2.6983,2.6982,2.6979,2.6982,2.6956,2.6979,2.6979,2.6979,2.6979,2.6979,2.6766,2.6778,2.6797,2.6816,2.6829,2.6844,2.6857,2.6869,2.6885,2.6905,2.6911,2.693,2.6946,2.697,2.6979,2.6994,2.6993,2.6997,2.6998,2.6999,2.7001,2.6975,2.6997,2.6997,2.6997,2.6997,2.6997,0,2.6782,2.6795,2.6812,2.6835,2.685,2.6854,2.6871,2.6883,2.6901,2.6916,2.6931,2.6952,2.6969,2.6983,2.7,2.701,2.7012,2.7014,2.7014,2.7016,2.7,2.6996,2.7012,2.7012,2.7012,2.7012,2.7012,2.7012,2.6792,2.6814,2.6823,2.6851,2.6864,2.6884,2.6894,2.6907,2.692,2.6944,2.6959,2.6969,2.6983,2.7002,2.7018,2.7022,2.7028,2.703,2.7034,2.7019,2.7017,2.7015,2.7012,2.7031,2.7031,2.7049,2.705,2.705]}]]